Location: Ellingshausen
(50.5460°N, 10.4723°E)
Time: 13:30:59
(UTC+00:00)

Cosmos 676 Rocket - Pass Details

Date: 17 April 2026
Orbit: 750 x 779 km, 74.0° (Epoch: 19 May)

Event Time Altitude Azimuth Distance (km) Brightness Sun altitude
Rises 22:40:40 0° 337° (NNW) 3,268 8.4 -28.2°
Reaches altitude 10° 22:43:05 10° 340° (NNW) 2,334 7.4 -28.3°
Enters shadow 22:48:07 64° 46° (NE) 856 4.2 -28.4°
